Location: *
(48.7358°N, 0.3111°E)
Time: 11:12:18
(UTC+00:00)

Cosmos 2297 - Pass Details

Date: 22 October 2019
Orbit: 834 x 860 km, 71.0° (Epoch: 17 November)

Event Time Altitude Azimuth Distance (km) Brightness Sun altitude
Exits shadow 05:16:49 - 324° (NW) 3,340 6.4 -12.6°
Reaches altitude 10° 05:19:12 10° 316° (NW) 2,506 5.7 -12.2°
Maximum altitude 05:24:14 32° 255° (WSW) 1,428 4.4 -11.3°
Drops below altitude 10° 05:29:15 10° 194° (SSW) 2,485 6.1 -10.5°
Sets 05:31:55 0° 184° (S) 3,414 6.9 -10.1°
